CW0451 Weather Reports


Display with metric or nautical units.
time (UTC)temp
F
wind
direction
speed
MPH
gust
MPH
rain 1hr
in
rain 24hr
in
rain mn
in
humidity
%
barometer
mb
20260906130104 62 11 8.0 11.0 0.00 0.01 0.01 86 1014.4
20260906125124 62 20 3.0 9.0 0.00 0.01 0.01 90 1014.3
20260906124104 61 5 4.0 7.0 0.00 0.01 0.01 91 1014.3
20260906123104 60 358 4.0 5.0 0.00 0.01 0.01 91 1014.3
20260906122104 60 4 2.0 5.0 0.00 0.01 0.01 91 1014.3
20260906121103 60 337 3.0 6.0 0.00 0.01 0.01 91 1014.1
20260906120104 60 355 3.0 5.0 0.00 0.01 0.01 91 1014.1
20260906115103 60 342 4.0 6.0 0.00 0.01 0.01 92 1014.1
20260906114104 60 357 3.0 5.0 0.00 0.01 0.01 92 1014.0
20260906113124 59 7 3.0 5.0 0.00 0.01 0.01 92 1013.8
20260906112104 59 353 3.0 7.0 0.00 0.01 0.01 93 1013.7
20260906111145 59 17 3.0 5.0 0.00 0.01 0.01 93 1013.5
20260906110125 59 22 2.0 4.0 0.00 0.01 0.01 92 1013.3
20260906105103 59 9 2.0 3.0 0.01 0.01 0.01 92 1013.2
20260906104104 59 29 1.0 5.0 0.01 0.01 0.01 92 1013.1
20260906103104 59 359 3.0 5.0 0.00 0.00 0.00 92 1013.2
20260906102124 59 359 3.0 8.0 0.00 0.00 0.00 91 1013.1
20260906101104 60 31 3.0 8.0 0.00 0.00 0.00 91 1013.1
20260906100103 60 27 4.0 9.0 0.00 0.00 0.00 92 1013.0
20260906095104 60 21 3.0 9.0 0.00 0.00 0.00 93 1012.9
20260906094103 60 15 4.0 8.0 0.00 0.00 0.00 93 1012.7
20260906093104 60 18 3.0 4.0 0.00 0.00 0.00 94 1012.5
20260906092103 60 13 3.0 5.0 0.00 0.00 0.00 93 1012.3
20260906091104 60 10 3.0 6.0 0.00 0.00 0.00 94 1012.3
20260906090103 60 0 4.0 5.0 0.00 0.00 0.00 94 1012.3
20260906085104 60 8 3.0 5.0 0.00 0.00 0.00 94 1012.1
20260906084103 60 6 3.0 5.0 0.00 0.00 0.00 94 1012.1
20260906083104 60 7 3.0 7.0 0.00 0.00 0.00 94 1012.0
20260906082103 60 7 5.0 7.0 0.00 0.00 0.00 94 1011.9
20260906081125 60 15 4.0 8.0 0.00 0.00 0.00 94 1011.8
20260906080103 60 25 2.0 4.0 0.00 0.00 0.00 93 1011.6
20260906075104 60 9 2.0 5.0 0.00 0.00 0.00 94 1011.6
20260906074103 60 0 3.0 5.0 0.00 0.00 0.00 94 1011.7
20260906073125 60 351 3.0 5.0 0.00 0.00 0.00 94 1011.7
20260906072103 60 349 3.0 6.0 0.00 0.00 0.00 94 1011.7
20260906071104 60 350 4.0 5.0 0.00 0.00 0.00 94 1011.7
20260906070104 60 341 3.0 5.0 0.00 0.00 0.00 93 1011.7
20260906065103 60 345 4.0 6.0 0.00 0.00 0.00 94 1011.7
20260906064104 60 345 3.0 6.0 0.00 0.00 0.00 94 1011.6
20260906063103 60 5 3.0 5.0 0.00 0.00 0.00 93 1011.6
20260906062146 60 5 3.0 5.0 0.00 0.00 0.00 93 1011.7
20260906061103 60 3 3.0 6.0 0.00 0.00 0.00 92 1011.8
20260906060104 60 353 3.0 4.0 0.00 0.00 0.00 92 1011.7
20260906055103 61 352 3.0 6.0 0.00 0.00 0.00 91 1011.8
20260906054104 60 350 4.0 6.0 0.00 0.00 0.00 91 1011.9
20260906053104 60 345 4.0 5.0 0.00 0.00 0.00 91 1012.0
20260906052104 60 349 3.0 5.0 0.00 0.00 0.00 92 1012.1
20260906051103 60 333 3.0 5.0 0.00 0.00 0.00 92 1012.2
20260906050125 60 354 3.0 5.0 0.00 0.00 0.00 92 1012.2
20260906045104 60 347 3.0 5.0 0.00 0.00 0.00 92 1012.1
20260906044103 60 340 4.0 5.0 0.00 0.00 0.00 93 1012.0
20260906043103 60 356 4.0 7.0 0.00 0.00 0.00 93 1011.9
20260906042104 60 346 3.0 6.0 0.00 0.00 0.00 94 1012.0
20260906041125 59 344 4.0 6.0 0.00 0.00 0.00 94 1012.0
20260906040103 59 5 2.0 3.0 0.00 0.00 0.00 94 1011.9
20260906035104 59 5 0.0 2.0 0.00 0.00 0.00 93 1011.9
20260906034103 59 5 0.0 0.0 0.00 0.00 0.00 93 1011.8
20260906033104 59 5 0.0 0.0 0.00 0.00 0.00 93 1011.8
20260906032103 60 5 0.0 0.0 0.00 0.00 0.00 92 1011.6
20260906031104 60 5 0.0 0.0 0.00 0.00 0.00 92 1011.6
20260906030124 60 5 0.0 0.0 0.00 0.00 0.00 92 1011.7
20260906025103 60 5 0.0 0.0 0.00 0.00 0.00 91 1011.6
20260906024103 61 5 0.0 0.0 0.00 0.00 0.00 90 1011.6
20260906023104 61 5 0.0 0.0 0.00 0.00 0.00 91 1011.8
20260906022104 61 5 0.0 0.0 0.00 0.00 0.00 91 1011.8
20260906021103 61 5 0.0 2.0 0.00 0.00 0.00 90 1011.8
20260906020104 62 5 1.0 2.0 0.00 0.00 0.00 90 1011.7
20260906015103 62 5 1.0 2.0 0.00 0.00 0.00 90 1011.8
20260906014104 62 5 1.0 4.0 0.00 0.00 0.00 89 1011.8
20260906013103 62 352 3.0 5.0 0.00 0.00 0.00 88 1011.9
20260906012104 62 345 4.0 5.0 0.00 0.00 0.00 89 1011.8
20260906011103 62 354 2.0 3.0 0.00 0.00 0.00 90 1011.7
20260906010104 62 73 1.0 2.0 0.00 0.00 0.00 89 1011.6
20260906005103 62 86 1.0 1.0 0.00 0.00 0.00 89 1011.6
20260906004104 63 86 0.0 1.0 0.00 0.00 0.00 88 1011.5
20260906003103 63 86 1.0 1.0 0.00 0.00 0.00 88 1011.4
20260906002125 63 86 0.0 1.0 0.00 0.00 0.00 85 1011.2
20260906001104 63 86 0.0 1.0 0.00 0.00 0.00 86 1011.3
20260906000103 63 86 0.0 3.0 0.00 0.00 0.00 82 1011.0
20260905235104 64 87 1.0 4.0 0.00 0.00 0.00 81 1011.0
20260905233104 64 95 2.0 4.0 0.00 0.00 0.00 80 1010.9
20260905232103 65 112 1.0 7.0 0.00 0.00 0.00 79 1010.8
20260905231104 65 111 4.0 9.0 0.00 0.00 0.00 78 1010.9
20260905230103 65 82 3.0 8.0 0.00 0.00 0.00 77 1010.8
20260905225104 66 70 4.0 10.0 0.00 0.00 0.00 77 1010.9
20260905224104 66 83 3.0 8.0 0.00 0.00 0.00 77 1010.8
20260905223103 66 92 3.0 12.0 0.00 0.00 0.00 77 1010.9
20260905222104 67 76 4.0 11.0 0.00 0.00 0.00 75 1010.8
20260905221145 68 74 8.0 15.0 0.00 0.00 0.00 73 1010.8
20260905220104 68 76 5.0 10.0 0.00 0.00 0.00 75 1010.7
20260905215146 68 89 6.0 11.0 0.00 0.00 0.00 75 1010.3
20260905214103 68 70 4.0 12.0 0.00 0.00 0.00 75 1010.2
20260905213104 69 107 5.0 15.0 0.00 0.00 0.00 74 1010.0
20260905212103 69 70 8.0 16.0 0.00 0.00 0.00 73 1009.9
20260905211104 70 101 5.0 13.0 0.00 0.00 0.00 72 1009.8
20260905210104 72 95 5.0 11.0 0.00 0.00 0.00 71 1009.7
20260905205104 71 42 6.0 10.0 0.00 0.00 0.00 72 1009.5
20260905203104 70 71 4.0 11.0 0.00 0.00 0.00 74 1009.4
20260905202124 70 63 6.0 14.0 0.00 0.00 0.00 74 1009.5
20260905201104 71 77 6.0 13.0 0.00 0.00 0.00 71 1009.3
20260905200103 72 77 5.0 14.0 0.00 0.00 0.00 73 1009.2
20260905195104 72 76 5.0 16.0 0.00 0.00 0.00 71 1009.2
20260905194103 72 81 6.0 9.0 0.00 0.00 0.00 69 1009.1
20260905193125 72 87 6.0 16.0 0.00 0.00 0.00 69 1009.1
20260905192104 73 19 8.0 14.0 0.00 0.00 0.00 71 1009.1
20260905191124 72 57 3.0 12.0 0.00 0.00 0.00 74 1009.1
20260905190104 71 29 6.0 13.0 0.00 0.00 0.00 69 1009.1
20260905185124 71 99 3.0 11.0 0.00 0.00 0.00 73 1009.3
20260905184104 71 41 7.0 14.0 0.00 0.00 0.00 70 1009.2
20260905183103 71 86 2.0 10.0 0.00 0.00 0.00 72 1009.2
20260905182104 71 58 4.0 12.0 0.00 0.00 0.00 71 1009.5
20260905181104 71 58 5.0 12.0 0.00 0.00 0.00 72 1009.4
20260905180104 71 87 3.0 7.0 0.00 0.00 0.00 73 1009.4
20260905175104 71 7 6.0 13.0 0.00 0.00 0.00 74 1009.3
20260905174124 71 48 5.0 13.0 0.00 0.00 0.00 71 1009.2
20260905173104 71 29 10.0 19.0 0.00 0.00 0.00 71 1009.0
20260905172104 72 63 3.0 14.0 0.00 0.00 0.00 71 1009.0
20260905171103 72 46 11.0 18.0 0.00 0.00 0.00 69 1009.0
20260905170104 72 31 6.0 16.0 0.00 0.00 0.00 74 1008.8
20260905165103 71 78 6.0 15.0 0.00 0.00 0.00 73 1008.7
20260905164104 71 31 7.0 15.0 0.00 0.00 0.00 72 1008.8
20260905163103 71 19 7.0 16.0 0.00 0.00 0.00 71 1008.8
20260905162104 72 67 7.0 17.0 0.00 0.00 0.00 70 1008.7
20260905161124 73 58 6.0 12.0 0.00 0.00 0.00 67 1008.5
20260905160104 73 39 6.0 16.0 0.00 0.00 0.00 69 1008.7
20260905155104 73 74 6.0 11.0 0.00 0.00 0.00 72 1008.6
20260905154103 72 29 6.0 14.0 0.00 0.00 0.00 72 1008.6
20260905153104 73 1 5.0 14.0 0.00 0.00 0.00 71 1008.6
20260905152103 74 64 6.0 15.0 0.00 0.00 0.00 68 1008.6
20260905151104 73 51 6.0 14.0 0.00 0.00 0.00 74 1008.5
20260905150104 73 78 4.0 14.0 0.00 0.00 0.00 70 1008.5
20260905145104 72 75 5.0 15.0 0.00 0.00 0.00 71 1008.5
20260905144103 72 22 4.0 11.0 0.00 0.00 0.00 74 1008.5
20260905143103 72 20 6.0 14.0 0.00 0.00 0.00 71 1008.6
20260905142103 73 21 9.0 15.0 0.00 0.00 0.00 70 1008.4
20260905141104 73 2 5.0 16.0 0.00 0.00 0.00 72 1008.5
20260905140124 72 7 5.0 16.0 0.00 0.00 0.00 73 1008.4
20260905135104 71 25 7.0 13.0 0.00 0.00 0.00 73 1008.4
20260905134103 71 9 9.0 14.0 0.00 0.00 0.00 73 1008.5
20260905132104 70 17 7.0 14.0 0.00 0.00 0.00 78 1008.6
20260905131145 69 26 6.0 12.0 0.00 0.00 0.00 78 1008.5